AFL692 UWOR-ULLI

Flight info

Callsign AFL692
Flight time 2h 47m
Altitude 36000
Route LALEP T750 OKSUD T787 OTKOL T784 ROKUR P164 PINOK N50 GENPA
Aircraft A320/M-SDE3FGHIRWY/LB1

Departure

Time 2026-05-07 15:43
Airport Orsk Airport (UWOR)

Arrival

Time 2026-05-07 18:31
Airport Pulkovo Airport (ULLI)
Time Latitude Longitude Altitude Speed Heading
2026-05-07 15:34 51.07589 58.59345 896 ft 0 kts 77°
2026-05-07 15:38 51.07589 58.59346 896 ft 1 kts 77°
2026-05-07 15:38 51.07589 58.59387 896 ft 6 kts 110°
2026-05-07 15:38 51.07530 58.59421 896 ft 12 kts 167°
2026-05-07 15:38 51.07434 58.59458 896 ft 15 kts 166°
2026-05-07 15:39 51.07339 58.59495 899 ft 14 kts 166°
2026-05-07 15:39 51.07252 58.59564 896 ft 16 kts 107°
2026-05-07 15:39 51.07276 58.59745 894 ft 19 kts 77°
2026-05-07 15:39 51.07308 58.59962 893 ft 21 kts 77°
2026-05-07 15:40 51.07342 58.60187 891 ft 22 kts 76°
2026-05-07 15:40 51.07382 58.60448 886 ft 25 kts 77°
2026-05-07 15:40 51.07424 58.60730 884 ft 27 kts 76°
2026-05-07 15:40 51.07467 58.61017 883 ft 27 kts 77°
2026-05-07 15:41 51.07510 58.61309 885 ft 27 kts 77°
2026-05-07 15:41 51.07554 58.61483 882 ft 9 kts 46°
2026-05-07 15:41 51.07539 58.61533 881 ft 6 kts 208°
2026-05-07 15:41 51.07535 58.61488 882 ft 2 kts 268°
2026-05-07 15:42 51.07532 58.61460 882 ft 2 kts 257°
2026-05-07 15:42 51.07527 58.61425 883 ft 16 kts 257°
2026-05-07 15:42 51.07431 58.60788 884 ft 99 kts 256°
2026-05-07 15:42 51.07215 58.59361 901 ft 163 kts 256°
2026-05-07 15:43 51.06939 58.57473 1316 ft 185 kts 256°
2026-05-07 15:43 51.06752 58.55434 2177 ft 187 kts 275°
2026-05-07 15:43 51.07151 58.53436 2682 ft 197 kts 295°
2026-05-07 15:43 51.07841 58.51398 2911 ft 221 kts 300°
2026-05-07 15:44 51.08371 58.49950 3110 ft 237 kts 300°
2026-05-07 15:44 51.09537 58.46711 3599 ft 265 kts 298°
2026-05-07 15:44 51.10136 58.44986 4039 ft 271 kts 298°
2026-05-07 15:44 51.11037 58.42318 4830 ft 276 kts 296°
2026-05-07 15:45 51.11930 58.39590 5627 ft 280 kts 296°
2026-05-07 15:45 51.12820 58.36810 6417 ft 284 kts 295°
2026-05-07 15:45 51.13711 58.33983 7162 ft 287 kts 295°
2026-05-07 15:45 51.14609 58.31115 7918 ft 291 kts 295°
2026-05-07 15:46 51.16435 58.25272 9424 ft 299 kts 295°
2026-05-07 15:46 51.17366 58.22284 10111 ft 304 kts 295°
2026-05-07 15:46 51.18338 58.19151 10326 ft 327 kts 295°
2026-05-07 15:47 51.19381 58.15781 10480 ft 350 kts 295°
2026-05-07 15:47 51.20489 58.12204 10746 ft 367 kts 295°
2026-05-07 15:47 51.21633 58.08528 11302 ft 372 kts 295°
2026-05-07 15:47 51.22790 58.04810 11922 ft 377 kts 295°
2026-05-07 15:48 51.23960 58.01049 12571 ft 380 kts 295°
2026-05-07 15:48 51.25138 57.97247 13204 ft 384 kts 295°
2026-05-07 15:48 51.26324 57.93400 13819 ft 388 kts 295°
2026-05-07 15:48 51.27514 57.89525 14394 ft 390 kts 295°
2026-05-07 15:49 51.28676 57.85592 14961 ft 393 kts 293°
2026-05-07 15:49 51.29811 57.81600 15518 ft 396 kts 293°
2026-05-07 15:49 51.30933 57.77556 16051 ft 400 kts 292°
2026-05-07 15:49 51.32057 57.73480 16586 ft 403 kts 292°
2026-05-07 15:50 51.33197 57.69369 17111 ft 406 kts 292°
2026-05-07 15:50 51.34353 57.65231 17625 ft 409 kts 293°
2026-05-07 15:50 51.35522 57.61063 18131 ft 412 kts 293°
2026-05-07 15:50 51.36702 57.56865 18565 ft 415 kts 293°
2026-05-07 15:51 51.37892 57.52638 19014 ft 418 kts 293°
2026-05-07 15:51 51.39088 57.48381 19447 ft 421 kts 293°
2026-05-07 15:51 51.40288 57.44089 19855 ft 424 kts 293°
2026-05-07 15:51 51.41492 57.39767 20269 ft 427 kts 293°
2026-05-07 15:52 51.42703 57.35401 20679 ft 430 kts 293°
2026-05-07 15:52 51.43919 57.31007 21090 ft 433 kts 293°
2026-05-07 15:52 51.45146 57.26581 21493 ft 436 kts 293°
2026-05-07 15:52 51.46380 57.22135 21888 ft 438 kts 293°
2026-05-07 15:53 51.47621 57.17655 22291 ft 441 kts 293°
2026-05-07 15:53 51.48865 57.13138 22685 ft 444 kts 293°
2026-05-07 15:53 51.50112 57.08598 23059 ft 446 kts 293°
2026-05-07 15:53 51.51364 57.04022 23430 ft 449 kts 293°
2026-05-07 15:54 51.52619 56.99417 23744 ft 451 kts 294°
2026-05-07 15:54 51.53879 56.94783 24032 ft 454 kts 294°
2026-05-07 15:54 51.55148 56.90123 24359 ft 456 kts 294°
2026-05-07 15:54 51.56420 56.85443 24671 ft 458 kts 294°
2026-05-07 15:55 51.57696 56.80747 24982 ft 460 kts 294°
2026-05-07 15:55 51.58980 56.76015 25287 ft 462 kts 294°
2026-05-07 15:55 51.60265 56.71271 25581 ft 464 kts 294°
2026-05-07 15:55 51.61553 56.66497 25879 ft 466 kts 294°
2026-05-07 15:56 51.62844 56.61695 26168 ft 468 kts 294°
2026-05-07 15:56 51.64169 56.56899 26437 ft 470 kts 295°
2026-05-07 15:56 51.65595 56.52150 26716 ft 472 kts 297°
2026-05-07 15:56 51.67099 56.47440 26984 ft 474 kts 298°
2026-05-07 15:57 51.68644 56.42736 27251 ft 476 kts 298°
2026-05-07 15:57 51.70194 56.38007 27502 ft 478 kts 298°
2026-05-07 15:57 51.71729 56.33248 27760 ft 480 kts 298°
2026-05-07 15:57 51.73250 56.28444 28012 ft 482 kts 297°
2026-05-07 15:58 51.74757 56.23609 28252 ft 484 kts 297°
2026-05-07 15:58 51.76261 56.18743 28502 ft 485 kts 297°
2026-05-07 15:58 51.77770 56.13855 28762 ft 486 kts 297°
2026-05-07 15:58 51.79277 56.08972 29101 ft 486 kts 297°
2026-05-07 15:59 51.80780 56.04094 29461 ft 485 kts 297°
2026-05-07 15:59 51.82282 55.99222 29800 ft 484 kts 297°
2026-05-07 15:59 51.83785 55.94352 30142 ft 483 kts 298°
2026-05-07 15:59 51.85286 55.89493 30440 ft 483 kts 298°
2026-05-07 16:00 51.86781 55.84635 30733 ft 482 kts 297°
2026-05-07 16:00 51.88271 55.79776 31027 ft 481 kts 297°
2026-05-07 16:00 51.89757 55.74925 31317 ft 481 kts 297°
2026-05-07 16:00 51.91237 55.70078 31609 ft 480 kts 297°
2026-05-07 16:01 51.92711 55.65233 31904 ft 479 kts 297°
2026-05-07 16:01 51.94179 55.60400 32253 ft 477 kts 297°
2026-05-07 16:01 51.95639 55.55585 32628 ft 474 kts 297°
2026-05-07 16:01 51.97087 55.50808 32977 ft 472 kts 297°
2026-05-07 16:02 51.98529 55.46035 33306 ft 470 kts 297°
2026-05-07 16:02 51.99962 55.41286 33631 ft 468 kts 296°
2026-05-07 16:02 52.01388 55.36552 33947 ft 467 kts 296°
2026-05-07 16:02 52.02811 55.31815 34197 ft 466 kts 296°
2026-05-07 16:03 52.04229 55.27093 34423 ft 465 kts 296°
2026-05-07 16:03 52.05644 55.22370 34653 ft 465 kts 296°
2026-05-07 16:03 52.07056 55.17645 34864 ft 464 kts 296°
2026-05-07 16:03 52.08462 55.12925 35104 ft 463 kts 296°
2026-05-07 16:04 52.09864 55.08218 35328 ft 463 kts 296°
2026-05-07 16:04 52.11264 55.03511 35527 ft 462 kts 296°
2026-05-07 16:04 52.12663 54.98804 35723 ft 462 kts 295°
2026-05-07 16:04 52.14058 54.94091 35862 ft 463 kts 295°
2026-05-07 16:05 52.15455 54.89363 35898 ft 464 kts 295°
2026-05-07 16:05 52.18248 54.79874 35893 ft 465 kts 295°
2026-05-07 16:06 52.21028 54.70367 35891 ft 463 kts 296°
2026-05-07 16:06 52.23783 54.60921 35896 ft 460 kts 296°
2026-05-07 16:07 52.26531 54.51490 35900 ft 460 kts 296°
2026-05-07 16:07 52.29272 54.42051 35902 ft 460 kts 296°
2026-05-07 16:08 52.31999 54.32587 35904 ft 460 kts 296°
2026-05-07 16:08 52.34843 54.23211 35906 ft 460 kts 298°
2026-05-07 16:09 52.37795 54.13927 35909 ft 460 kts 298°
2026-05-07 16:09 52.40723 54.04628 35912 ft 459 kts 297°
2026-05-07 16:10 52.43607 53.95283 35915 ft 459 kts 297°
2026-05-07 16:10 52.46475 53.85928 35914 ft 459 kts 297°
2026-05-07 16:11 52.49339 53.76565 35920 ft 459 kts 297°
2026-05-07 16:11 52.52191 53.67212 35924 ft 458 kts 297°
2026-05-07 16:12 52.55037 53.57849 35923 ft 458 kts 297°
2026-05-07 16:12 52.57870 53.48492 35925 ft 457 kts 297°
2026-05-07 16:13 52.60698 53.39123 35924 ft 457 kts 297°
2026-05-07 16:13 52.63516 53.29744 35922 ft 457 kts 296°
2026-05-07 16:14 52.66322 53.20362 35927 ft 456 kts 296°
2026-05-07 16:14 52.69119 53.10972 35924 ft 456 kts 296°
2026-05-07 16:15 52.71911 53.01557 35922 ft 457 kts 296°
2026-05-07 16:15 52.74694 52.92146 35927 ft 456 kts 296°
2026-05-07 16:16 52.77467 52.82728 35946 ft 455 kts 295°
2026-05-07 16:16 52.80237 52.73329 35932 ft 454 kts 295°
2026-05-07 16:17 52.82982 52.63932 35928 ft 454 kts 295°
2026-05-07 16:17 52.85712 52.54531 35929 ft 453 kts 295°
2026-05-07 16:18 52.88428 52.45140 35929 ft 452 kts 295°
2026-05-07 16:18 52.91138 52.35738 35918 ft 452 kts 294°
2026-05-07 16:19 52.93846 52.26329 35917 ft 452 kts 294°
2026-05-07 16:19 52.96545 52.16910 35915 ft 452 kts 294°
2026-05-07 16:20 52.99231 52.07469 35915 ft 452 kts 294°
2026-05-07 16:20 53.01909 51.98031 35911 ft 452 kts 294°
2026-05-07 16:21 53.04579 51.88580 35904 ft 452 kts 294°
2026-05-07 16:21 53.07246 51.79130 35903 ft 452 kts 294°
2026-05-07 16:22 53.09897 51.69655 35903 ft 451 kts 294°
2026-05-07 16:22 53.12539 51.60178 35899 ft 451 kts 293°
2026-05-07 16:23 53.15181 51.50700 35903 ft 451 kts 294°
2026-05-07 16:23 53.17815 51.41212 35914 ft 451 kts 294°
2026-05-07 16:24 53.20425 51.31722 35917 ft 450 kts 294°
2026-05-07 16:24 53.23028 51.22217 35917 ft 450 kts 294°
2026-05-07 16:25 53.25621 51.12698 35917 ft 450 kts 294°
2026-05-07 16:25 53.27772 51.04790 35918 ft 450 kts 294°
2026-05-07 16:26 53.30366 50.95271 35922 ft 450 kts 294°
2026-05-07 16:26 53.32964 50.85684 35931 ft 449 kts 294°
2026-05-07 16:27 53.35523 50.76161 35930 ft 449 kts 294°
2026-05-07 16:27 53.38074 50.66627 35932 ft 449 kts 294°
2026-05-07 16:28 53.40620 50.57085 35929 ft 448 kts 294°
2026-05-07 16:28 53.43159 50.47551 35934 ft 447 kts 294°
2026-05-07 16:29 53.45684 50.38023 35932 ft 447 kts 294°
2026-05-07 16:29 53.48179 50.28557 35933 ft 446 kts 293°
2026-05-07 16:30 53.50699 50.19043 35927 ft 446 kts 296°
2026-05-07 16:30 53.54013 50.10245 35924 ft 446 kts 303°
2026-05-07 16:31 53.57471 50.01585 35934 ft 446 kts 303°
2026-05-07 16:31 53.60942 49.92859 35954 ft 446 kts 303°
2026-05-07 16:32 53.64382 49.84179 35941 ft 445 kts 303°
2026-05-07 16:32 53.67816 49.75491 35943 ft 445 kts 303°
2026-05-07 16:33 53.71234 49.66800 35947 ft 445 kts 303°
2026-05-07 16:33 53.74655 49.58089 35954 ft 444 kts 303°
2026-05-07 16:34 53.78057 49.49398 35951 ft 443 kts 303°
2026-05-07 16:34 53.81453 49.40689 35944 ft 444 kts 303°
2026-05-07 16:35 53.84840 49.31950 35948 ft 444 kts 303°
2026-05-07 16:35 53.88203 49.23275 35968 ft 443 kts 303°
2026-05-07 16:36 53.91597 49.14493 35966 ft 442 kts 303°
2026-05-07 16:36 53.94951 49.05753 35953 ft 442 kts 303°
2026-05-07 16:37 53.98298 48.97003 35959 ft 441 kts 303°
2026-05-07 16:37 54.01627 48.88262 35963 ft 440 kts 302°
2026-05-07 16:38 54.04946 48.79519 35967 ft 439 kts 302°
2026-05-07 16:38 54.08255 48.70773 35960 ft 440 kts 302°
2026-05-07 16:39 54.11568 48.62014 35963 ft 439 kts 302°
2026-05-07 16:39 54.14869 48.53248 35979 ft 439 kts 302°
2026-05-07 16:40 54.18132 48.44535 35978 ft 439 kts 302°
2026-05-07 16:40 54.21432 48.35691 35968 ft 439 kts 302°
2026-05-07 16:41 54.24688 48.26924 35964 ft 440 kts 302°
2026-05-07 16:41 54.27935 48.18053 35963 ft 440 kts 301°
2026-05-07 16:42 54.31073 48.09058 35962 ft 440 kts 300°
2026-05-07 16:42 54.34175 48.00010 35965 ft 440 kts 301°
2026-05-07 16:43 54.37293 47.90978 35970 ft 440 kts 301°
2026-05-07 16:43 54.40418 47.81950 35976 ft 440 kts 301°
2026-05-07 16:44 54.43538 47.72906 35981 ft 440 kts 301°
2026-05-07 16:44 54.46646 47.63846 35985 ft 440 kts 301°
2026-05-07 16:45 54.49742 47.54771 35985 ft 440 kts 301°
2026-05-07 16:45 54.52836 47.45684 35982 ft 440 kts 301°
2026-05-07 16:46 54.55918 47.36585 35982 ft 440 kts 301°
2026-05-07 16:46 54.58994 47.27474 35979 ft 440 kts 301°
2026-05-07 16:47 54.62069 47.18357 35979 ft 440 kts 301°
2026-05-07 16:47 54.65137 47.09221 35976 ft 440 kts 300°
2026-05-07 16:48 54.68187 47.00068 35976 ft 440 kts 300°
2026-05-07 16:48 54.71192 46.90858 35980 ft 439 kts 299°
2026-05-07 16:49 54.74154 46.81620 35978 ft 439 kts 299°
2026-05-07 16:49 54.77115 46.72371 35973 ft 439 kts 299°
2026-05-07 16:50 54.80076 46.63129 35975 ft 439 kts 299°
2026-05-07 16:50 54.83418 46.54309 35969 ft 438 kts 308°
2026-05-07 16:51 54.87196 46.46025 35964 ft 438 kts 308°
2026-05-07 16:51 54.90967 46.37729 35962 ft 438 kts 308°
2026-05-07 16:52 54.94729 46.29399 35965 ft 438 kts 308°
2026-05-07 16:52 54.98477 46.21053 35969 ft 438 kts 307°
2026-05-07 16:53 55.02225 46.12697 35967 ft 437 kts 307°
2026-05-07 16:53 55.05966 46.04331 35962 ft 437 kts 307°
2026-05-07 16:54 55.09704 45.95955 35962 ft 437 kts 307°
2026-05-07 16:54 55.13437 45.87562 35955 ft 437 kts 307°
2026-05-07 16:55 55.17155 45.79151 35966 ft 437 kts 307°
2026-05-07 16:55 55.20860 45.70739 35958 ft 436 kts 307°
2026-05-07 16:56 55.24567 45.62320 35951 ft 436 kts 307°
2026-05-07 16:56 55.30105 45.49678 35942 ft 436 kts 307°
2026-05-07 16:57 55.33785 45.41224 35946 ft 435 kts 306°
2026-05-07 16:57 55.37459 45.32772 35943 ft 435 kts 306°
2026-05-07 16:58 55.41117 45.24314 35932 ft 434 kts 306°
2026-05-07 16:58 55.44764 45.15847 35929 ft 434 kts 306°
2026-05-07 16:59 55.48406 45.07367 35924 ft 434 kts 306°
2026-05-07 16:59 55.52042 44.98868 35939 ft 433 kts 305°
2026-05-07 17:00 55.55389 44.90084 35931 ft 430 kts 294°
2026-05-07 17:00 55.57087 44.80045 35927 ft 427 kts 276°
2026-05-07 17:01 55.57419 44.69583 35904 ft 427 kts 272°
2026-05-07 17:01 55.57684 44.59093 35890 ft 427 kts 272°
2026-05-07 17:02 55.57945 44.48595 35890 ft 428 kts 272°
2026-05-07 17:02 55.58197 44.38089 35897 ft 428 kts 272°
2026-05-07 17:03 55.58439 44.27589 35896 ft 427 kts 272°
2026-05-07 17:03 55.58669 44.17088 35893 ft 427 kts 272°
2026-05-07 17:04 55.58887 44.06600 35888 ft 427 kts 272°
2026-05-07 17:04 55.59097 43.96100 35886 ft 427 kts 272°
2026-05-07 17:05 55.59306 43.85611 35878 ft 427 kts 273°
2026-05-07 17:05 55.60209 43.77054 35870 ft 428 kts 288°
2026-05-07 17:06 55.62861 43.67645 35880 ft 429 kts 299°
2026-05-07 17:06 55.65849 43.58505 35873 ft 429 kts 298°
2026-05-07 17:07 55.69298 43.47842 35877 ft 429 kts 298°
2026-05-07 17:07 55.71784 43.40138 35874 ft 429 kts 298°
2026-05-07 17:08 55.74746 43.30945 35875 ft 429 kts 298°
2026-05-07 17:08 55.77708 43.21735 35886 ft 429 kts 298°
2026-05-07 17:09 55.80844 43.12729 35888 ft 429 kts 303°
2026-05-07 17:09 55.84281 43.04039 35888 ft 429 kts 303°
2026-05-07 17:10 55.87699 42.95326 35882 ft 429 kts 303°
2026-05-07 17:10 55.91111 42.86610 35882 ft 429 kts 303°
2026-05-07 17:11 55.94521 42.77894 35882 ft 429 kts 303°
2026-05-07 17:11 55.97918 42.69185 35873 ft 429 kts 303°
2026-05-07 17:12 56.01316 42.60436 35875 ft 428 kts 303°
2026-05-07 17:12 56.04700 42.51662 35875 ft 428 kts 302°
2026-05-07 17:13 56.07997 42.42782 35873 ft 428 kts 301°
2026-05-07 17:13 56.11227 42.33831 35887 ft 428 kts 301°
2026-05-07 17:14 56.14459 42.24883 35886 ft 428 kts 301°
2026-05-07 17:14 56.17703 42.15945 35884 ft 427 kts 301°
2026-05-07 17:15 56.21014 42.07073 35885 ft 428 kts 304°
2026-05-07 17:15 56.24643 41.98576 35887 ft 429 kts 307°
2026-05-07 17:16 56.28363 41.90190 35898 ft 429 kts 306°
2026-05-07 17:16 56.32026 41.81717 35895 ft 429 kts 305°
2026-05-07 17:17 56.35638 41.73156 35893 ft 429 kts 305°
2026-05-07 17:17 56.39236 41.64564 35899 ft 429 kts 305°
2026-05-07 17:18 56.42843 41.55985 35899 ft 429 kts 305°
2026-05-07 17:18 56.46451 41.47396 35910 ft 429 kts 304°
2026-05-07 17:19 56.50040 41.38795 35910 ft 428 kts 304°
2026-05-07 17:19 56.53623 41.30192 35912 ft 428 kts 304°
2026-05-07 17:20 56.57189 41.21576 35908 ft 427 kts 304°
2026-05-07 17:20 56.60705 41.12894 35906 ft 425 kts 299°
2026-05-07 17:21 56.63068 41.03178 35921 ft 420 kts 285°
2026-05-07 17:21 56.64810 40.93058 35918 ft 419 kts 285°
2026-05-07 17:22 56.66551 40.82943 35919 ft 419 kts 286°
2026-05-07 17:22 56.68287 40.72826 35921 ft 419 kts 285°
2026-05-07 17:23 56.70008 40.62703 35921 ft 419 kts 285°
2026-05-07 17:23 56.71720 40.52565 35945 ft 419 kts 285°
2026-05-07 17:24 56.73418 40.42444 35940 ft 418 kts 285°
2026-05-07 17:24 56.75104 40.32326 35939 ft 417 kts 285°
2026-05-07 17:25 56.76785 40.22222 35924 ft 416 kts 285°
2026-05-07 17:25 56.78463 40.12116 35918 ft 416 kts 285°
2026-05-07 17:26 56.80119 40.01993 35923 ft 416 kts 285°
2026-05-07 17:26 56.81764 39.91872 35934 ft 416 kts 284°
2026-05-07 17:27 56.83410 39.81752 35940 ft 415 kts 284°
2026-05-07 17:27 56.85055 39.71645 35930 ft 415 kts 284°
2026-05-07 17:28 56.86689 39.61519 35936 ft 415 kts 284°
2026-05-07 17:28 56.88314 39.51400 35940 ft 415 kts 284°
2026-05-07 17:29 56.89926 39.41276 35936 ft 415 kts 284°
2026-05-07 17:29 56.91529 39.31141 35960 ft 414 kts 284°
2026-05-07 17:30 56.93121 39.21032 35956 ft 413 kts 284°
2026-05-07 17:30 56.94696 39.10936 35958 ft 412 kts 284°
2026-05-07 17:31 56.96253 39.00910 35954 ft 412 kts 284°
2026-05-07 17:31 56.97820 38.90756 35948 ft 411 kts 284°
2026-05-07 17:32 56.99354 38.80727 35945 ft 411 kts 284°
2026-05-07 17:32 57.00644 38.72265 35966 ft 411 kts 283°
2026-05-07 17:33 57.02429 38.60553 35940 ft 409 kts 283°
2026-05-07 17:33 57.03949 38.50494 35937 ft 409 kts 283°
2026-05-07 17:34 57.05452 38.40439 35942 ft 408 kts 283°
2026-05-07 17:34 57.06954 38.30382 35941 ft 408 kts 283°
2026-05-07 17:35 57.08444 38.20325 35938 ft 408 kts 283°
2026-05-07 17:35 57.09929 38.10253 35966 ft 408 kts 283°
2026-05-07 17:36 57.11404 38.00195 35950 ft 407 kts 283°
2026-05-07 17:36 57.12862 37.90146 35945 ft 406 kts 283°
2026-05-07 17:37 57.14312 37.80087 35946 ft 406 kts 283°
2026-05-07 17:37 57.15748 37.70030 35944 ft 406 kts 282°
2026-05-07 17:38 57.17454 37.60113 35941 ft 408 kts 289°
2026-05-07 17:38 57.19555 37.50401 35940 ft 408 kts 289°
2026-05-07 17:39 57.21642 37.40671 35946 ft 408 kts 289°
2026-05-07 17:39 57.23714 37.30930 35946 ft 408 kts 289°
2026-05-07 17:40 57.25775 37.21176 35940 ft 408 kts 288°
2026-05-07 17:40 57.27832 37.11409 35939 ft 408 kts 288°
2026-05-07 17:41 57.29876 37.01634 35979 ft 408 kts 288°
2026-05-07 17:41 57.31917 36.91874 35968 ft 407 kts 288°
2026-05-07 17:42 57.33956 36.82124 35965 ft 406 kts 288°
2026-05-07 17:42 57.35974 36.72371 35936 ft 405 kts 288°
2026-05-07 17:43 57.37979 36.62628 35941 ft 405 kts 288°
2026-05-07 17:43 57.39973 36.52863 35945 ft 405 kts 288°
2026-05-07 17:44 57.41962 36.43100 35971 ft 405 kts 287°
2026-05-07 17:44 57.43943 36.33332 35972 ft 404 kts 287°
2026-05-07 17:45 57.45914 36.23560 35963 ft 404 kts 287°
2026-05-07 17:45 57.47880 36.13782 35960 ft 404 kts 287°
2026-05-07 17:46 57.49835 36.04005 35956 ft 403 kts 287°
2026-05-07 17:46 57.51796 35.94235 35954 ft 403 kts 287°
2026-05-07 17:47 57.53748 35.84465 35987 ft 403 kts 287°
2026-05-07 17:47 57.55689 35.74690 35979 ft 402 kts 287°
2026-05-07 17:48 57.57617 35.64920 35978 ft 402 kts 287°
2026-05-07 17:48 57.59213 35.56785 35977 ft 402 kts 287°
2026-05-07 17:49 57.61144 35.47004 35973 ft 402 kts 287°
2026-05-07 17:49 57.63143 35.37267 35979 ft 402 kts 288°
2026-05-07 17:50 57.65156 35.27536 35999 ft 402 kts 287°
2026-05-07 17:50 57.67147 35.17800 35994 ft 401 kts 287°
2026-05-07 17:51 57.69124 35.08055 35986 ft 401 kts 287°
2026-05-07 17:51 57.71253 34.98414 35985 ft 404 kts 295°
2026-05-07 17:52 57.74710 34.89991 35964 ft 412 kts 306°
2026-05-07 17:52 57.78491 34.81948 36005 ft 411 kts 305°
2026-05-07 17:53 57.82254 34.73861 35994 ft 411 kts 305°
2026-05-07 17:53 57.86006 34.65761 35994 ft 411 kts 305°
2026-05-07 17:54 57.89764 34.57644 35993 ft 412 kts 305°
2026-05-07 17:54 57.93519 34.49521 35990 ft 412 kts 305°
2026-05-07 17:55 57.97271 34.41375 35995 ft 412 kts 305°
2026-05-07 17:55 58.01021 34.33215 36014 ft 411 kts 304°
2026-05-07 17:56 58.04756 34.25035 36006 ft 411 kts 304°
2026-05-07 17:56 58.08495 34.16849 36003 ft 412 kts 304°
2026-05-07 17:57 58.11593 34.10034 36004 ft 412 kts 304°
2026-05-07 17:57 58.15951 34.00411 36002 ft 412 kts 304°
2026-05-07 17:58 58.19670 33.92148 36039 ft 411 kts 304°
2026-05-07 17:58 58.23358 33.83960 36028 ft 411 kts 304°
2026-05-07 17:59 58.27062 33.75687 36024 ft 411 kts 304°
2026-05-07 17:59 58.30763 33.67407 36031 ft 411 kts 304°
2026-05-07 18:00 58.34454 33.59104 36021 ft 411 kts 303°
2026-05-07 18:00 58.38134 33.50795 36056 ft 410 kts 303°
2026-05-07 18:01 58.41813 33.42461 36030 ft 411 kts 303°
2026-05-07 18:01 58.45487 33.34105 35943 ft 412 kts 303°
2026-05-07 18:02 58.49163 33.25742 35442 ft 410 kts 303°
2026-05-07 18:02 58.50995 33.21564 35199 ft 409 kts 302°
2026-05-07 18:02 58.52816 33.17393 34956 ft 408 kts 302°
2026-05-07 18:03 58.54637 33.13219 34714 ft 408 kts 302°
2026-05-07 18:03 58.56452 33.09054 34475 ft 407 kts 302°
2026-05-07 18:03 58.58262 33.04897 34287 ft 406 kts 301°
2026-05-07 18:03 58.60071 33.00722 34054 ft 408 kts 301°
2026-05-07 18:04 58.61881 32.96529 33782 ft 408 kts 301°
2026-05-07 18:04 58.63696 32.92330 33501 ft 409 kts 301°
2026-05-07 18:04 58.65514 32.88126 33233 ft 410 kts 301°
2026-05-07 18:04 58.67333 32.83904 32963 ft 411 kts 301°
2026-05-07 18:05 58.69153 32.79672 32694 ft 411 kts 301°
2026-05-07 18:05 58.70978 32.75420 32425 ft 412 kts 301°
2026-05-07 18:05 58.72807 32.71163 32163 ft 413 kts 301°
2026-05-07 18:05 58.74639 32.66887 31904 ft 414 kts 301°
2026-05-07 18:06 58.76472 32.62603 31640 ft 415 kts 301°
2026-05-07 18:06 58.78308 32.58299 31387 ft 416 kts 301°
2026-05-07 18:06 58.80143 32.53984 31134 ft 417 kts 301°
2026-05-07 18:06 58.81982 32.49655 30891 ft 418 kts 301°
2026-05-07 18:07 58.83827 32.45312 30638 ft 419 kts 301°
2026-05-07 18:07 58.85673 32.40959 30391 ft 419 kts 301°
2026-05-07 18:07 58.87514 32.36607 30143 ft 415 kts 301°
2026-05-07 18:07 58.89314 32.32361 29862 ft 402 kts 301°
2026-05-07 18:08 58.91059 32.28234 29576 ft 390 kts 301°
2026-05-07 18:08 58.92751 32.24225 29290 ft 379 kts 300°
2026-05-07 18:08 58.94392 32.20320 29008 ft 369 kts 300°
2026-05-07 18:08 58.95992 32.16494 28731 ft 366 kts 300°
2026-05-07 18:09 58.97623 32.12531 28510 ft 385 kts 300°
2026-05-07 18:09 58.99326 32.08372 28247 ft 403 kts 300°
2026-05-07 18:09 59.01109 32.04038 27968 ft 415 kts 301°
2026-05-07 18:09 59.02927 31.99659 27699 ft 418 kts 301°
2026-05-07 18:10 59.04764 31.95272 27452 ft 418 kts 301°
2026-05-07 18:10 59.06598 31.90896 27190 ft 417 kts 301°
2026-05-07 18:10 59.08417 31.86541 26813 ft 413 kts 301°
2026-05-07 18:10 59.10210 31.82228 26172 ft 407 kts 301°
2026-05-07 18:11 59.11910 31.77873 25646 ft 403 kts 298°
2026-05-07 18:11 59.12975 31.74920 25336 ft 402 kts 297°
2026-05-07 18:11 59.15025 31.68889 24677 ft 398 kts 296°
2026-05-07 18:11 59.16519 31.64361 24212 ft 395 kts 296°
2026-05-07 18:12 59.17997 31.59879 23689 ft 392 kts 296°
2026-05-07 18:12 59.19482 31.55438 23150 ft 390 kts 297°
2026-05-07 18:12 59.20969 31.51041 22679 ft 387 kts 297°
2026-05-07 18:12 59.22459 31.46669 22201 ft 385 kts 297°
2026-05-07 18:13 59.23943 31.42330 21708 ft 383 kts 297°
2026-05-07 18:13 59.25417 31.38021 21245 ft 381 kts 297°
2026-05-07 18:13 59.26881 31.33728 20774 ft 378 kts 298°
2026-05-07 18:13 59.28334 31.29453 20306 ft 376 kts 298°
2026-05-07 18:14 59.29762 31.25243 20036 ft 365 kts 298°
2026-05-07 18:14 59.31138 31.21185 19900 ft 350 kts 297°
2026-05-07 18:14 59.32458 31.17284 19784 ft 337 kts 297°
2026-05-07 18:14 59.33726 31.13520 19684 ft 325 kts 297°
2026-05-07 18:15 59.34945 31.09883 19553 ft 313 kts 297°
2026-05-07 18:15 59.36123 31.06351 19283 ft 307 kts 297°
2026-05-07 18:15 59.37282 31.02865 18922 ft 305 kts 297°
2026-05-07 18:15 59.38434 30.99398 18541 ft 302 kts 297°
2026-05-07 18:16 59.39577 30.95970 17841 ft 299 kts 298°
2026-05-07 18:16 59.40714 30.92563 17095 ft 297 kts 298°
2026-05-07 18:16 59.41839 30.89178 16392 ft 296 kts 298°
2026-05-07 18:16 59.42956 30.85806 15726 ft 294 kts 299°
2026-05-07 18:17 59.44067 30.82449 15175 ft 290 kts 299°
2026-05-07 18:17 59.45165 30.79134 14798 ft 289 kts 300°
2026-05-07 18:17 59.45890 30.76944 14556 ft 288 kts 300°
2026-05-07 18:17 59.47350 30.72531 14090 ft 288 kts 300°
2026-05-07 18:18 59.48441 30.69227 13715 ft 288 kts 300°
2026-05-07 18:18 59.49533 30.65915 13331 ft 287 kts 300°
2026-05-07 18:18 59.50602 30.62667 12982 ft 286 kts 300°
2026-05-07 18:18 59.51679 30.59376 12625 ft 285 kts 301°
2026-05-07 18:19 59.52750 30.56101 12281 ft 284 kts 301°
2026-05-07 18:19 59.53821 30.52835 11920 ft 284 kts 302°
2026-05-07 18:19 59.54890 30.49571 11564 ft 283 kts 302°
2026-05-07 18:19 59.55969 30.46329 11196 ft 283 kts 303°
2026-05-07 18:20 59.57057 30.43104 10827 ft 282 kts 303°
2026-05-07 18:20 59.58147 30.39889 10457 ft 282 kts 304°
2026-05-07 18:20 59.59235 30.36679 10090 ft 281 kts 304°
2026-05-07 18:20 59.60319 30.33465 9698 ft 280 kts 304°
2026-05-07 18:21 59.61392 30.30268 9331 ft 279 kts 304°
2026-05-07 18:21 59.62457 30.27089 8964 ft 277 kts 304°
2026-05-07 18:21 59.63515 30.23925 8604 ft 275 kts 304°
2026-05-07 18:21 59.64568 30.20775 8246 ft 274 kts 304°
2026-05-07 18:22 59.65608 30.17657 8016 ft 267 kts 304°
2026-05-07 18:22 59.66288 30.15617 7926 ft 259 kts 304°
2026-05-07 18:22 59.67572 30.11761 7636 ft 250 kts 304°
2026-05-07 18:22 59.68522 30.08899 7302 ft 248 kts 306°
2026-05-07 18:23 59.69465 30.06059 6958 ft 246 kts 306°
2026-05-07 18:23 59.70405 30.03236 6600 ft 246 kts 306°
2026-05-07 18:23 59.71344 30.00411 6232 ft 245 kts 306°
2026-05-07 18:23 59.72276 29.97592 5866 ft 244 kts 306°
2026-05-07 18:24 59.73195 29.94794 5571 ft 241 kts 306°
2026-05-07 18:24 59.74102 29.92025 5283 ft 239 kts 306°
2026-05-07 18:24 59.75005 29.89274 4981 ft 238 kts 306°
2026-05-07 18:24 59.75908 29.86530 4664 ft 237 kts 306°
2026-05-07 18:25 59.76908 29.84000 4232 ft 231 kts 323°
2026-05-07 18:25 59.78314 29.82570 3739 ft 227 kts 349°
2026-05-07 18:25 59.79868 29.82561 3413 ft 224 kts 15°
2026-05-07 18:25 59.81262 29.83905 3228 ft 225 kts 40°
2026-05-07 18:26 59.82224 29.86294 3025 ft 220 kts 61°
2026-05-07 18:26 59.82952 29.88931 2830 ft 215 kts 61°
2026-05-07 18:26 59.83652 29.91502 2627 ft 206 kts 66°
2026-05-07 18:26 59.83943 29.94181 2459 ft 195 kts 91°
2026-05-07 18:27 59.83682 29.96739 2364 ft 184 kts 105°
2026-05-07 18:27 59.83330 29.99110 2219 ft 174 kts 105°
2026-05-07 18:27 59.83002 30.01337 2103 ft 159 kts 104°
2026-05-07 18:27 59.82799 30.02720 2046 ft 152 kts 104°
2026-05-07 18:28 59.82417 30.05319 1826 ft 142 kts 104°
2026-05-07 18:28 59.82145 30.07170 1628 ft 138 kts 104°
2026-05-07 18:28 59.81879 30.08989 1439 ft 136 kts 104°
2026-05-07 18:28 59.81614 30.10790 1248 ft 136 kts 105°
2026-05-07 18:29 59.81350 30.12590 1059 ft 136 kts 105°
2026-05-07 18:29 59.81085 30.14395 871 ft 136 kts 106°
2026-05-07 18:29 59.80819 30.16200 686 ft 137 kts 105°
2026-05-07 18:29 59.80557 30.18019 509 ft 137 kts 105°
2026-05-07 18:30 59.80293 30.19834 329 ft 136 kts 105°
2026-05-07 18:30 59.80021 30.21639 132 ft 136 kts 105°
2026-05-07 18:30 59.79770 30.23347 81 ft 113 kts 105°
2026-05-07 18:30 59.79594 30.24511 82 ft 63 kts 107°
2026-05-07 18:31 59.79514 30.25045 82 ft 27 kts 107°
2026-05-07 18:31 59.79482 30.25409 80 ft 27 kts 90°
2026-05-07 18:31 59.79515 30.25747 85 ft 15 kts 75°
2026-05-07 18:31 59.79531 30.25870 86 ft 0 kts 76°
2026-05-07 18:33 59.79531 30.25871 86 ft 1 kts 76°
2026-05-07 18:34 59.79540 30.25942 82 ft 7 kts 76°
2026-05-07 18:34 59.79541 30.26041 86 ft 7 kts 99°
2026-05-07 18:34 59.79527 30.26148 84 ft 8 kts 107°
2026-05-07 18:34 59.79512 30.26251 81 ft 8 kts 107°
2026-05-07 18:35 59.79509 30.26350 81 ft 8 kts 59°
2026-05-07 18:35 59.79564 30.26391 80 ft 9 kts 16°
2026-05-07 18:35 59.79617 30.26420 79 ft 5 kts 16°
2026-05-07 18:35 59.79629 30.26427 81 ft 1 kts 16°
2026-05-07 18:36 59.79647 30.26438 79 ft 3 kts 16°
2026-05-07 18:36 59.79675 30.26462 81 ft 4 kts 42°
2026-05-07 18:36 59.79676 30.26499 82 ft 2 kts 96°
2026-05-07 18:36 59.79673 30.26523 79 ft 2 kts 107°
2026-05-07 18:37 59.79669 30.26546 83 ft 3 kts 107°
2026-05-07 18:37 59.79666 30.26567 83 ft 0 kts 107°